Theta_e
310 309 310 309 308 307 308 302 306 308 307 308 308 309 306 306 307 309 311 313 313 311 312 313 316 315 312 310 310 315 314 311 309 309 310 310 311 308 307 307 308 307 308 309 308 308 308
307 306 309 309 308 307 305 302 306 308 308 307 307 308 309 309 309 311 311 312 312 311 311 312 312 313 312 308 308 309 310 310 310 309 310 310 309 309 308 307 307 309 308 308 308 307 307
303 307 303 308 307 308 304 300 305 307 308 307 307 308 308 309 310 310 311 311 312 311 311 311 311 311 312 307 308 308 309 309 309 309 309 310 310 310 309 306 307 307 306 307 307 307 307
303 303 304 302 306 306 302 300 303 306 307 308 307 308 308 309 309 309 309 312 311 310 310 311 310 310 307 308 308 308 309 309 309 309 310 310 310 309 308 306 306 305 304 305 307 307 308
305 303 303 302 303 306 303 300 302 305 307 308 308 308 308 308 308 309 309 309 310 310 310 311 311 309 308 309 309 307 308 308 309 309 309 309 309 307 307 304 303 303 303 307 308 307 308
307 305 304 303 303 304 305 303 301 305 307 307 307 307 307 307 308 308 309 308 309 309 309 309 310 310 309 308 308 307 306 307 308 308 308 308 308 304 302 303 303 306 307 307 308 308 307
307 304 305 304 303 303 305 306 303 304 307 307 306 305 305 306 307 308 308 308 308 308 308 308 308 308 308 308 308 307 308 307 307 308 307 305 303 302 305 305 304 305 306 307 308 308 308
303 304 304 305 304 303 303 306 306 303 305 307 307 306 306 306 306 307 307 307 307 307 307 308 308 308 308 309 309 309 308 308 308 307 306 305 306 306 306 306 305 306 307 308 308 309 309
305 303 304 303 304 304 303 303 306 307 304 305 307 307 306 306 306 306 307 307 307 307 306 307 308 308 308 308 308 309 309 308 306 306 306 307 306 306 307 306 308 307 307 309 309 309 307
310 304 304 303 303 304 305 306 305 306 307 305 304 306 307 307 306 306 306 306 308 306 301 304 308 308 308 308 307 309 309 308 307 306 305 305 305 307 307 307 307 310 309 310 311 307 304
312 308 304 304 303 304 304 307 307 307 306 306 306 304 305 305 306 306 306 308 308 307 305 304 308 309 308 307 307 309 309 309 308 309 304 305 307 309 310 310 309 310 309 310 310 308 300
313 311 306 304 304 304 304 305 307 307 307 307 307 306 306 306 306 305 306 309 307 300 302 305 308 309 309 309 309 309 309 310 309 307 306 307 307 308 309 309 309 309 309 307 306 305 299
314 313 311 306 304 305 305 304 305 307 307 308 309 310 310 310 309 310 310 309 301 300 302 306 308 309 309 310 309 309 308 308 307 304 302 305 309 309 309 310 309 308 305 300 301 302 303
314 314 312 310 306 305 305 305 304 305 306 307 308 309 310 312 312 310 307 302 303 304 306 307 309 309 310 309 310 309 308 305 307 305 301 300 304 310 309 311 311 312 306 301 304 304 306
314 314 314 312 310 307 305 305 304 304 306 306 307 309 311 313 310 309 307 302 302 305 308 309 310 310 309 309 310 310 309 308 309 308 307 306 311 310 309 311 310 312 308 309 311 309 311
313 313 314 313 312 311 307 305 305 305 306 307 308 309 310 312 310 309 305 304 307 308 309 309 310 308 310 309 310 310 311 310 310 309 308 309 311 310 311 311 311 312 310 311 310 310 309
311 312 313 313 313 313 311 307 305 305 305 307 308 309 310 311 309 309 304 305 309 309 309 309 310 310 310 311 310 310 311 311 309 310 309 309 308 309 312 311 311 313 313 311 308 312 310
307 311 312 314 313 313 313 312 308 306 305 307 308 304 310 312 308 303 305 308 309 309 309 309 309 310 310 309 311 311 311 311 311 309 310 309 306 306 310 310 308 309 309 308 307 307 308
305 308 311 313 313 313 313 313 312 308 305 307 308 309 309 310 303 301 307 308 309 309 309 309 310 309 308 309 311 309 310 310 311 309 310 309 307 303 306 308 310 311 309 307 307 307 310
304 306 308 311 312 312 313 313 313 311 306 306 308 301 309 310 308 305 308 309 308 308 309 309 309 308 309 309 307 308 307 310 311 310 310 310 306 306 300 303 308 312 310 308 308 311 308
303 304 305 307 310 311 312 313 314 313 308 306 306 303 305 301 305 306 306 307 309 310 308 309 309 308 308 308 307 307 306 307 309 309 309 306 306 304 305 306 306 308 309 309 310 310 309
302 304 304 305 307 310 311 313 313 313 310 307 305 306 307 305 306 306 304 306 308 308 308 309 308 308 308 308 306 307 307 307 306 307 306 305 306 305 303 304 304 306 305 307 309 310 310
303 305 306 306 305 308 310 312 313 313 312 307 305 304 304 304 303 302 302 306 308 308 307 308 307 307 307 306 307 307 308 307 305 305 305 304 305 303 305 303 303 303 303 305 305 305 307
307 308 309 308 307 308 310 312 313 312 312 310 307 304 303 301 303 303 306 306 306 307 307 308 309 307 307 308 307 307 305 305 305 304 305 303 303 303 304 302 299 303 303 303 304 304 306
310 309 309 309 310 309 310 311 312 312 312 310 308 306 304 301 300 302 302 303 305 305 305 307 307 308 308 307 304 302 300 305 305 303 302 303 304 305 304 300 303 303 304 304 304 304 302
310 310 309 309 310 310 309 310 311 311 312 311 309 308 305 303 302 303 303 303 302 302 301 305 306 307 307 303 304 305 302 302 303 304 301 302 303 304 304 305 306 302 303 306 304 302 302
311 311 310 309 310 310 310 310 310 310 310 311 310 309 307 304 306 304 303 301 304 303 301 303 306 306 306 302 305 304 303 302 303 304 304 305 305 308 308 309 306 303 304 305 305 303 303
312 311 311 311 311 310 310 310 310 310 310 310 310 310 307 306 309 307 306 305 304 305 301 303 303 303 302 304 303 303 302 302 303 302 303 305 305 306 306 308 306 304 303 304 304 305 306
309 310 311 311 312 312 311 310 310 309 310 309 309 309 309 307 309 309 308 307 305 303 303 303 303 304 305 299 300 301 304 301 302 305 300 303 303 304 304 305 304 304 305 307 306 305 306
Wind_Speed
19 19 20 20 20 20 20 22 24 26 27 29 31 28 28 25 23 21 20 19 30 26 27 21 30 40 32 21 11 16 16 18 20 21 20 16 17 8 5 7 5 6 3 6 7 7 7
19 18 18 20 20 20 19 19 20 21 24 32 31 27 26 25 22 23 21 19 29 32 28 27 38 42 35 23 21 23 16 15 18 21 21 11 9 13 10 5 6 5 10 7 5 6 4
19 19 17 17 19 20 20 18 18 17 22 29 29 25 26 26 21 27 21 25 29 30 30 28 28 38 41 18 28 26 22 21 16 20 20 15 16 2 9 6 9 8 5 3 5 2 1
23 19 17 18 17 19 19 17 17 18 21 24 26 26 30 29 22 28 28 23 28 27 27 32 23 39 22 25 25 21 22 21 18 19 17 14 10 17 6 12 6 5 5 3 3 3 2
24 21 18 17 17 17 19 18 16 17 20 21 20 21 24 27 25 23 21 21 21 21 19 24 27 27 8 21 21 20 17 19 19 18 17 12 9 9 6 4 4 6 3 1 4 1 2
24 24 19 16 16 17 16 17 15 14 17 20 25 29 28 24 17 21 24 29 28 14 9 15 14 13 14 18 18 17 17 16 16 16 12 8 8 4 5 5 4 4 4 2 1 3 0
25 25 22 16 15 16 17 16 15 12 11 15 18 21 23 25 28 11 17 14 17 25 46 30 19 20 17 20 19 14 15 16 13 11 5 7 8 4 3 2 2 5 4 3 1 2 2
26 26 26 19 16 16 15 16 14 11 6 4 6 12 19 20 19 27 31 37 22 14 19 33 27 26 21 17 18 15 9 6 8 5 2 7 4 1 2 4 5 5 4 2 2 0 2
26 25 24 21 19 17 16 14 14 12 8 3 2 1 7 14 14 7 19 18 11 10 7 18 19 20 11 19 13 15 12 10 8 7 6 6 2 2 2 5 6 5 4 2 1 5 0
27 26 25 22 20 19 18 17 15 14 10 7 4 4 4 7 8 13 10 3 2 4 5 12 10 10 8 4 8 16 10 5 6 4 5 6 4 3 4 5 2 2 2 1 2 4 3
27 28 26 23 21 20 16 17 18 17 14 11 8 6 6 6 3 6 8 5 1 3 7 9 8 8 8 7 3 10 10 16 5 3 5 3 2 5 6 1 2 2 1 2 1 2 4
25 26 28 25 22 21 18 13 13 16 17 16 13 10 9 7 5 5 5 2 2 6 2 5 6 7 6 8 4 4 6 10 5 6 7 3 2 2 2 1 2 2 3 5 4 2 3
23 24 25 26 24 21 19 17 13 10 11 14 15 13 12 10 8 6 3 5 5 7 3 3 2 3 1 4 4 5 4 5 3 5 3 5 3 1 1 2 3 4 5 3 4 4 5
20 22 24 25 25 23 20 18 15 11 7 8 11 15 15 13 10 6 2 5 10 4 3 2 2 5 5 5 4 3 3 4 4 4 4 4 5 2 1 1 2 3 4 4 4 1 5
18 20 22 24 25 25 23 20 19 13 8 7 6 10 17 16 13 6 2 7 6 6 3 2 4 4 5 3 2 3 2 2 1 2 4 4 1 1 2 2 3 2 3 3 0 2 3
16 18 20 22 23 25 25 24 21 17 10 7 6 2 18 15 14 10 7 4 2 2 3 3 3 2 4 5 3 3 0 2 2 1 3 3 3 1 1 1 3 2 4 2 1 1 4
14 16 18 20 22 23 24 25 23 19 12 9 5 2 14 13 10 12 4 1 1 1 2 1 1 1 2 1 2 1 1 1 3 2 1 3 2 3 2 6 7 3 3 2 2 3 3
13 14 16 18 19 21 23 25 25 21 16 8 4 4 13 9 7 5 3 2 1 0 0 1 1 1 0 1 1 3 4 3 8 6 3 1 3 3 7 2 4 3 6 6 4 4 3
13 13 14 15 18 19 21 23 24 23 18 8 3 3 9 6 4 2 2 3 2 1 2 1 2 2 3 1 2 1 1 1 10 6 4 3 1 2 6 5 2 4 5 4 3 2 7
13 14 12 13 15 18 19 20 22 22 18 9 2 3 6 8 8 7 4 0 1 2 3 2 2 1 2 1 1 2 1 1 7 4 3 4 3 6 6 4 3 4 5 7 6 4 3
13 15 15 13 14 15 16 18 20 20 16 8 5 3 3 3 4 2 3 5 3 2 2 1 3 3 1 1 2 3 2 1 2 4 4 3 4 3 6 11 8 12 9 9 16 14 9
12 14 14 16 14 16 17 17 17 18 15 11 4 2 2 2 1 2 2 5 6 2 5 3 4 2 3 4 6 4 2 3 5 1 5 2 3 1 5 8 6 9 15 17 20 19 18
12 11 12 14 14 13 14 15 15 15 15 8 7 4 0 1 2 3 3 3 4 5 4 4 6 1 3 8 12 14 12 9 3 6 6 4 2 3 5 4 8 9 9 17 7 7 17
12 12 13 13 14 14 11 13 13 14 14 12 9 4 1 1 1 3 1 2 3 4 3 3 6 5 3 3 13 14 14 14 12 11 8 5 3 2 4 7 3 6 2 4 13 9 15
13 13 13 14 13 14 13 11 11 10 10 9 9 6 2 2 4 4 4 4 5 6 4 8 11 8 7 7 3 5 2 2 2 4 7 6 4 2 2 2 10 8 3 5 6 7 12
16 14 14 14 14 13 12 10 10 9 9 8 7 8 4 0 4 2 2 2 2 2 4 4 3 3 2 2 2 2 4 3 3 3 6 5 4 4 3 1 5 4 1 2 2 5 5
21 19 16 15 15 14 13 11 10 10 9 10 8 8 4 4 3 5 3 2 2 1 2 4 2 2 4 2 1 3 4 2 3 5 5 4 3 12 9 4 8 10 11 1 1 6 2
25 26 23 21 18 16 15 12 11 11 11 13 10 8 6 4 13 12 7 8 5 4 2 1 2 2 2 2 3 3 3 4 1 3 5 7 6 5 5 6 10 14 6 9 7 3 6
20 25 26 26 22 20 18 16 12 12 12 13 13 12 12 9 13 22 22 21 19 14 5 4 3 2 6 3 1 0 3 2 3 4 3 3 7 5 10 8 6 13 9 13 11 11 14
Wind_Direction
17 19 15 16 19 18 19 35 39 35 37 27 26 32 36 40 40 46 45 55 84 100 114 115 134 139 115 85 49 122 134 143 153 154 149 137 147 115 109 107 72 78 118 75 90 66 66
19 23 17 15 18 16 19 38 42 44 27 19 25 38 46 44 47 56 51 75 91 90 70 108 107 134 112 69 70 102 120 129 141 156 146 128 137 119 97 80 74 101 103 101 67 76 53
22 18 22 19 19 19 20 37 40 35 23 20 27 44 49 53 61 56 65 85 85 80 78 113 83 114 102 75 82 97 122 114 118 148 137 116 127 117 110 92 111 116 82 55 23 42 78
20 20 19 21 25 20 24 37 36 36 34 33 45 56 60 61 67 59 63 89 92 79 87 93 93 97 78 76 85 102 109 109 119 140 126 103 114 99 60 111 52 68 57 96 316 347 18
17 18 19 22 23 28 26 37 47 46 44 44 46 63 59 51 66 70 66 61 93 87 83 90 83 89 64 85 88 89 112 110 117 120 111 111 104 72 66 70 43 16 140 120 327 253 29
17 18 15 21 23 27 28 32 54 60 65 68 69 64 58 52 56 76 89 70 72 79 90 73 65 71 60 61 68 81 98 112 115 120 105 64 64 71 33 51 188 167 97 80 242 345 12
16 18 16 20 27 21 29 29 36 65 83 84 73 62 54 51 47 93 93 75 74 50 63 74 73 84 76 68 76 94 95 102 97 72 75 32 67 87 66 28 113 116 113 133 35 27 333
18 19 21 24 28 29 20 29 29 41 65 92 81 65 58 52 52 75 86 81 79 99 66 64 70 68 66 62 66 63 88 80 74 75 44 43 72 345 314 44 74 70 89 15 334 242 289
21 25 22 23 25 29 24 20 27 26 35 22 332 25 27 29 42 55 72 75 81 79 80 48 44 43 39 56 42 31 57 78 72 60 53 96 98 338 103 54 74 37 91 33 215 316 307
20 23 26 21 24 27 32 26 28 25 21 15 351 314 311 353 12 15 33 344 333 13 72 347 11 28 13 30 42 34 39 63 52 102 70 65 3 78 83 74 86 97 346 47 9 34 270
21 18 26 23 19 23 34 38 31 29 27 22 9 0 343 327 9 22 356 354 329 5 61 309 338 351 30 80 126 25 45 65 76 96 94 238 84 72 70 36 64 142 14 7 35 70 45
21 21 19 24 21 18 18 31 34 29 33 37 37 24 14 4 9 14 8 78 112 43 44 341 326 353 11 34 48 75 66 76 77 60 49 74 58 60 113 41 77 127 69 44 48 73 20
19 21 22 20 24 20 17 13 16 22 27 34 29 31 23 15 0 4 41 142 37 74 267 303 305 357 308 26 50 52 40 35 71 84 14 354 360 338 145 89 22 76 54 347 354 8 225
17 17 21 20 21 21 19 14 8 4 1 11 29 21 15 17 8 2 331 67 68 250 277 319 341 343 29 6 33 42 64 38 25 73 100 116 348 191 195 207 138 61 127 140 219 303 289
14 15 18 21 19 19 18 16 10 0 2 1 352 15 20 16 18 23 358 49 165 194 162 85 348 39 352 20 89 75 65 145 60 60 120 122 337 65 194 319 97 169 57 185 121 211 274
12 12 13 17 19 18 16 15 13 11 1 3 4 15 16 11 16 27 68 105 337 270 122 106 134 158 20 334 33 64 260 217 158 147 140 176 109 263 216 87 33 144 131 108 53 286 283
4 9 11 12 14 17 17 15 14 12 5 356 22 54 11 7 19 50 84 108 104 19 4 126 252 108 136 121 31 28 200 283 191 192 119 143 119 247 155 200 181 150 182 154 167 217 207
353 1 6 8 10 11 14 14 13 14 12 2 23 38 6 16 43 35 55 55 92 170 79 310 305 340 164 286 151 171 198 221 176 157 138 262 137 201 218 270 185 182 180 160 144 223 226
341 352 359 2 4 9 10 12 12 12 14 22 51 29 14 38 90 29 0 13 359 18 280 332 341 27 22 332 342 298 308 343 167 156 162 178 31 14 348 359 31 210 197 173 108 80 218
330 337 346 354 1 3 8 10 10 11 13 32 41 31 28 53 88 125 132 101 343 335 315 320 303 25 22 327 194 302 274 234 197 198 172 151 192 199 198 199 149 215 197 187 159 196 207
321 325 333 342 352 357 5 10 10 11 15 25 44 60 50 332 9 77 130 162 170 198 207 235 311 254 212 288 301 244 249 346 168 197 143 133 247 212 262 263 251 244 231 198 210 215 209
309 315 323 333 344 348 356 5 10 14 17 36 47 40 86 96 345 337 323 208 175 197 168 222 193 169 203 233 209 240 185 209 219 131 158 162 262 359 270 275 267 259 244 231 232 234 251
299 307 319 324 331 338 347 359 8 15 21 44 38 26 44 1 86 85 228 206 217 165 211 208 198 170 248 245 263 272 267 264 255 171 192 167 198 13 268 330 302 284 249 218 197 208 219
312 311 313 316 324 331 346 354 1 11 25 34 30 23 30 274 164 206 241 233 244 241 248 208 196 164 231 287 302 274 259 251 239 225 198 147 142 164 280 340 343 239 244 200 203 237 217
292 300 299 310 318 327 335 349 355 0 10 20 25 23 11 282 244 280 237 232 282 276 255 254 244 237 268 313 337 320 300 211 169 191 208 176 133 287 291 263 291 312 20 146 174 280 215
283 287 287 291 302 311 322 329 341 350 357 1 9 10 345 161 242 270 272 229 215 239 322 239 253 218 183 86 81 272 264 284 213 120 54 120 128 159 157 237 264 252 337 160 147 293 218
271 276 280 278 286 296 309 315 323 330 339 341 338 344 340 285 259 218 214 231 212 191 235 293 272 174 176 112 208 223 268 248 268 189 177 134 170 212 223 256 271 243 226 292 59 242 220
264 270 273 275 276 279 288 297 300 310 319 323 319 325 319 275 283 266 243 220 219 216 171 280 358 239 75 164 177 225 202 236 290 195 189 176 161 202 191 221 264 183 96 172 218 223 250
270 268 271 270 269 272 274 280 290 290 296 307 310 315 309 290 280 288 281 265 245 233 237 239 285 226 209 106 231 294 248 234 195 260 147 238 197 185 195 226 272 196 230 240 265 270 277